Zurück zum Katalog

ONEWEB-0179

AktivKommunikationPO
NORAD 48212·PAYLOAD·🇬🇧 United Kingdom

Gestartet Apr 25, 2021 von Vostochny Cosmodrome

Loading…

Nächste Überflüge (nächste 24 Stunden)

TLE

AktuellSource: CelesTrak SupGP

Epoche: Sep 14, 2026, 19:16 UTC

1 48212C 21031C   26257.80295553  .00004443  00000+0  41395-3 0  2579
2 48212  87.8937 264.8917 0348479 318.3949 101.4383 14.57921360    19

Verfolge ONEWEB-0179 in Echtzeit mit AllMySat

Download on the App Store